Regional Weather Roundup
Issued by NWS

Home | Current Version | Previous Version | Text Only | Print | Product List | Glossary On
Versions: 1 2 3 4 5 6 7 8 9 10 11 12 13 14 15 16 17 18 19 20 21 22 23 24 25 26 27 28 29 30 31 32 33 34 35 36 37 38 39 40 41 42 43 44 45 46 47 48 49 50
000
ASHW40 PHFO 050230
RWRHI

WEATHER ROUNDUP FOR HAWAII
NATIONAL WEATHER SERVICE HONOLULU HI
400 PM HST WED MAR 04 2015

THIS IS AN AUTOMATED REPORT THAT HAS NOT BEEN QUALITY CONTROLLED.

NOTE..."FAIR" INDICATES FEW OR NO CLOUDS BELOW 12,000 FEET WITH NO
SIGNIFICANT WEATHER AND/OR OBSTRUCTIONS TO VISIBILITY.

* - THESE SITES REPORT LIMITED FIELDS

HIZ001>004-050300-
KAUAI-NIIHAU-

CITY           SKY/WX    TMP DP  RH WIND       PRES   REMARKS
LIHUE APT      FAIR      76  61  59 NE20G26   30.00S
PORT ALLEN*      N/A     81 N/A N/A SE3G20      N/A
POIPU*         NOT AVBL
PRINCEVILLE*     N/A     72 N/A N/A MISG        N/A
KOKOLE POINT*  NOT AVBL
MOLOAA DAIRY*  NOT AVBL
WAIMEA HTS*    NOT AVBL
PUU OPAE*      NOT AVBL
PUU LUA*       NOT AVBL
MAKAHA RIDGE*  NOT AVBL
$$

HIZ005>011-050300-
OAHU-

CITY           SKY/WX    TMP DP  RH WIND       PRES   REMARKS
HONOLULU       PTSUNNY   75  63  66 N12G21    29.96F
KALAELOA       LGT RAIN  73  62  68 VRB7      29.97S
KANEOHE MCB    CLOUDY    72  63  73 NE12      29.95F
WHEELER FIELD  LGT RAIN  68  64  88 NW9       29.98S
BELLOWS*       NOT AVBL
KAHUKU*        NOT AVBL
WHEELER*       NOT AVBL
WAIANAE HARBOR NOT AVBL
DILLINGHAM*      N/A     72  64  78 MISG        N/A
KAHUKU TRN*      N/A     70  66  88 E6G16       N/A
KAWAILOA*        N/A     64  63  94 NE8G17      N/A
KII*             N/A     72  64  78 NE12G18     N/A
MAKUA RANGE*     N/A     70  64  83 E12G25      N/A
OAHU FOREST NW NOT AVBL
SCHOFIELD BRK*   N/A     66  64  94 MISG        N/A
SCHOFIELD S*   NOT AVBL
WAIANAE VLY*   NOT AVBL
KUAOKALA*      NOT AVBL
HONOULIUULI*   NOT AVBL
MOKUOLOE IS*   NOT AVBL
PALEHUA*       NOT AVBL
WAIAWA PHB*    NOT AVBL
$$

HIZ012>013-050300-
MOLOKAI-

CITY           SKY/WX    TMP DP  RH WIND       PRES   REMARKS
MOLOKAI AIRPT  LGT RAIN  68  68 100 N10       29.98S
KALAUPAPA      NOT AVBL
MAKAPULAPAI*   NOT AVBL
MOLOKAI 1*     NOT AVBL
PUU ALII*      NOT AVBL
$$

HIZ016-050300-
KAHOOLAWE-

CITY           SKY/WX    TMP DP  RH WIND       PRES   REMARKS
KAHOOLAWE*     NOT AVBL
HAKIOAWA*      NOT AVBL
HONOKANAIA*      N/A     72  66  81 N6G14     29.96F
KANELOA*         N/A     72  72 100 MISG      29.17F
KEALIALALO*    NOT AVBL
LUA MAKIKA*    NOT AVBL
$$

HIZ014>015-050300-
LANAI-

CITY           SKY/WX    TMP DP  RH WIND       PRES   REMARKS
LANAI CITY     LGT RAIN  67  66  96 E10       30.00S
LANAI 1*       NOT AVBL
$$

HIZ017>028-050300-
MAUI-

CITY           SKY/WX    TMP DP  RH WIND       PRES   REMARKS
KAHULUI        LGT RAIN  72  61  68 N13       29.96S
KAPALUA-W MAUI LGT RAIN  70  66  88 VRB7      29.97
HANA AIRPORT   LGT RAIN  68  64  88 SW3       29.95F
HANA*          NOT AVBL
HALEAKALA SUMM   N/A     34  34 100 NE18        N/A  WCI  23
MAALAEA BAY*   NOT AVBL
HALEAKALA*     NOT AVBL
KAUPO GAP*     NOT AVBL
KULA 1*          N/A     53  49  85 W3          N/A
$$

HIZ023>026-050300-
BIG ISLAND OF HAWAII COAST AND LOWER SLOPES-

CITY           SKY/WX    TMP DP  RH WIND       PRES   REMARKS
KAILUA KONA    LGT RAIN  75  60  59 N21G28    29.86F
HILO           CLOUDY    75  62  64 N6        29.93F
HONOKAA*       NOT AVBL
KAWAIHAE MWT*  NOT AVBL
KAWAIHAE*        N/A     79 N/A N/A W6G17       N/A
SOUTH POINT*   NOT AVBL
UPOLU AIRPORT* NOT AVBL
KAMUELA*       PTCLDY    61  55  82 N17       29.99F
HAKALAU*         N/A     50  46  86 N5G10       N/A
KALOKO-HONOKO*   N/A     73  70  88 SE6       29.86F
PALI 2*          N/A     64  52  63 NE14G28     N/A
KEALAKOMO*       N/A     75  57  53 N24G36      N/A
KAUPULEHU*     NOT AVBL
KAPAPALA*        N/A     66  65  97 CALM        N/A
LOWER KAHUKU*  NOT AVBL
PUHE CS*       NOT AVBL
PUHO CS*       NOT AVBL
PTA KEAMUKU*     N/A     59  52  77 NE1G12      N/A
WAIKOLOA*      NOT AVBL
$$

HIZ027>028-050300-
BIG ISLAND OF HAWAII INTERIOR AND SUMMMITS-

CITY           SKY/WX    TMP DP  RH WIND       PRES   REMARKS
BRADSHAW FIELD LGT RAIN  54  50  87 S5        30.18F
MK VISITOR CEN NOT AVBL
MAUNA KEA*       N/A     28  28 100 NW25        N/A  WCI  14
MAUNA LOA*       N/A     37  36  93 MISG        N/A
MAUNA LOA 1*   NOT AVBL
PTA KIPUKA*      N/A     57  45  62 E15G31      N/A
PTA RANGE 17*    N/A     54  46  76 SE13G20     N/A
PTA WEST*        N/A     61  55  82 N3          N/A
NENE CABIN*    NOT AVBL
AHUMOA*        NOT AVBL
PTA PORTABLE*  NOT AVBL
PUU MALI*      NOT AVBL
$$

HIC003-050300-
NORTHWEST ISLANDS-

CITY           SKY/WX    TMP DP  RH WIND       PRES   REMARKS
MIDWAY ISLAND  PTSUNNY   64  52  63 E16       30.39S
MIDWAY NOS*    NOT AVBL
FRENCH FRIGATE NOT AVBL
$$

PHZ110>124-180-050300-
BUOY REPORTS

STATION/POSITION TIME  TEMP    WIND        PRES    WAVE   SWELL
                       AIR SEA DIR/SP/G            HT/PER HT/DIR
                 (UTC) (F)     (DEG/KT/KT) (MB)    (FT/S) (FT/D)
BUOY 51001       NOT AVBL
BUOY 51101       0200   67 71   20/ 21/ 25 1018.4R  10/ 9   7/ 60
BUOY 51100       NOT AVBL
BUOY 51003       0200   75 78   40/ 21/ 27 1012.9R  10/ 8   3
BUOY 51004       0056   77 79   40/ 12/ 16 1010.9    9/10   8/ 80
BARBERS PT BUOY  NOT AVBL
WAIMEA BAY BUOY  0200      77                N/A     7/ 9   3
KAILUA BAY BUOY  0200      76                N/A     7/10   3/ 60
LANAI BUOY       0200      76                N/A     3/14   2/180
BARBERS PT 2     0200      77                N/A     3/14   2/190
PAUWELA MAUI     0200      75                N/A     8/11   3/ 70
HILO             0200      77                N/A     8/10   5/ 40
KANEOHE BAY BUOY 0200      77                N/A     7/ 9   2/ 50
HANALEI KAUAI    NOT AVBL
KAHULUI HARBOR   0200   73 76  330/ 12/ 17 1014.3R
HONOLULU HARBOR  0200   74 76  110/  6/ 12 1014.2F
KILO NALU        NOT AVBL
HILO HARBOR      0200   75 77   10/  8/ 11 1012.8F
MOKUOLOE         0200   73 76   50/ 12/ 16 1015.2R
NAWILIWILI       0200   73 77   30/ 15/ 20 1015.6R
WHOTS BUOY       NOT AVBL
BUOY 51028       NOT AVBL
$$

......................KEY........................................
  SKY/WX - SKY CONDITIONS/PRESENT WEATHER
  TMP    - TEMPERATURE IN FAHRENHEIT
  DWPT   - DEWPOINT IN FAHRENHEIT
  RH     - RELATIVE HUMIDITY IN PERCENT
  WIND   - DIRECTION AND SPEED /MPH FOR ISLANDS...KTS FOR BUOYS/
  PRES   - MEAN SEA LEVEL PRESSURE IN INCHES OF HG
  VSB    - VISIBILITY IN MILES
  HX     - HEAT INDEX
  WCI    - WIND CHILL INDEX
  VRB    - VARIABLE WIND DIRECTION
  N/A    - NOT AVAILABLE



USA.gov is the U.S. government's official web portal to all federal, state and local government web resources and services.